User: anonymous   Login
Location: Bottom School (historical)
(37.9078°N, 89.3593°W)
Time: 22:04:08
(UTC+00:00)
Language:

SL-16 DEB - Orbit

View from above orbital plane
View from above orbital plane
View from above satellite
View from above satellite

Ground track
Ground track

The orbit data is extracted from the following two-line orbital elements,

1 27751U 92093JN  23333.38601623  .00060123  00000-0  74620-2 0  9991
2 27751  71.1536 326.3087 0029527 249.7714 110.0269 14.81966449525930
Epoch (UTC): 29 November 2023 09:15:51
Eccentricity: 0.0029527
inclination: 71.1536°
perigee height: 602 km
apogee height: 644 km
right ascension of ascending node: 326.3087°
argument of perigee: 249.7714°
revolutions per day: 14.81966449
mean anomaly at epoch: 110.0269°
orbit number at epoch: 52593

The dashed part of the orbit path shows where the satellite is in the earth's shadow,  

DLR